Showing default

YAOGAN-39 01B, 57728

Orbit data source: Space-Track

YAOGAN-39 01B, 57728 is a payload satellite owned by PLA GAD (CN) in LEO that was launched on Thu, 31 Aug 2023 UTC via a CHANG ZHENG 2D launch vehicle from the Xichang Space Center, China (XSC). Payload-class satellites include a variety of spacecraft equipped with specific instruments for various scientific and technological missions. These include communications satellites like Starlink; space stations such as the ISS; scientific satellites like the Hubble; Earth observation satellites from companies like Planet Labs, Umbra, and HawkEye 360; GPS; miniature CubeSats for education and research; and military/defense satellites.

Loading next visibility...
Identifier
57728, 2023-130B
Orbit
LEO
Country
Flag of CNCN / PRC
Related business
Manufacturer
SAST
Mission
Operational Defense Sigint
Bus & Motor
Unknown
Mass
~300 kg wet, ~300 kg dry
Launch date (UTC)
2023-08-31 (2 years ago)
Launch vehicle
CHANG ZHENG 2D
Launch site
Xichang Space Center, China (XSC)
Object type
Payload
Rocket body
Debris
Shape & HBR
Box + 2 Pan, 2.5 m
Radar Cross Section
11.063 m², Large (>1 m²)

Expand to show TLE details & history
Last TLE update: 8 hours ago

TLE from 8 hours ago
0 YAOGAN-39 01B
1 57728U 23130B   25340.92204982  .00011930  00000-0  58015-3 0  9994
2 57728  34.9957 270.7060 0007021 174.4135 185.6657 15.17613273126266
Epoch: 2025-12-06T22:07Z
TLE epoch observation values (Epoch: 2025-12-06T22:07:45.104Z)
Latitude
-0.00002°
Longitude
-137.17481°
Altitude
516.779 km
Speed
7.605 km/s
True Right ascension
18h 02m 49s
True Declination
0° 00' 00"
Sunlit
Object was in daylight at epoch
Visualization orbit readout
Latitude
Unknown
Longitude
Unknown
Altitude
Unknown
Speed
Unknown
Apparent Right ascension
Unknown
Apparent Declination
Unknown
Sunlit
N/A
Visualization observer readout
Local Sidereal Time
04:23:53
Azimuth
Unknown
Elevation
Unknown
Doppler factor
Unknown
Orbital elements
Apogee altitude
521.14 km
Perigee altitude
511.459 km
Semi-major axis
6,894.436 km
Eccentricity
0.0007
Inclination
34.9957°
RAAN
270.706°
Arg. of periapsis
174.4135°
True anomaly
185.65776°
Mean anomaly
185.6657°
Eccentric anomaly
185.66173°
Mean motion
3.79136 °/min
Orbital period
94.95 mins
BSTAR
0.00058015
Loading maneuver chart data...
Computing Atmospheric mass density...
Loading historical data...
Loading historical data...
Loading historical data...
Loading historical data...
Loading historical data...
Loading historical data...
Loading historical data...
Other satellites on launch #130 in the year 2023 (2023-08-31 UTC)

Documentation

Showing up to 5 results
|